Location: Lussas
(44.6119°N, 4.4726°E)
Time: 14:38:33
(UTC+00:00)

Cosmos 1295 Rocket - Pass Details

Date: 26 November 2020
Orbit: 944 x 993 km, 82.9° (Epoch: 27 January)

Event Time Altitude Azimuth Distance (km) Brightness Sun altitude
Rises 06:14:14 0° 193° (SSW) 3,607 7.6 -7.1°
Reaches altitude 10° 06:16:44 10° 195° (SSW) 2,662 6.9 -6.7°
Maximum altitude 06:22:47 71° 279° (W) 1,000 4.4 -5.7°
Drops below altitude 10° 06:28:53 10° 4° (N) 2,675 6.6 -4.7°
Sets 06:31:24 0° 7° (N) 3,627 7.3 -4.3°
